[[{"header":{"parameterUnit":"m.s-1","parameterCategory":1,"la1":30.2991,"la2":30.254,"lo1":-89.0895,"lo2":-89.0444,"dy":0.0017,"dx":0.0017,"nx":28,"ny":28,"refTime":"2024-08-21T21:00:00:Z","depth":0,"parameterNumber":2,"parameterNumberName":"U-component_of_WINDS"},"data":[0,0,0,0,0,0,0,0,0,0,0,0,0,0,0,0,0,0,0,0,0,0,0,0,0,0,0,0,0,0,0,0,0,0,0,0,0,0,0,0,0,0,0,0,0,0,0,0,0,0,0,0,0,0,0,0,0,0,-4.4784,-4.4784,0,-4.477,-4.477,-4.4769,-4.4649,-4.4646,-4.4643,-4.464,-4.463,-4.4632,-4.4635,0,0,0,0,0,0,0,0,0,0,0,0,0,-4.4713,-4.4715,-4.4784,-4.4784,-4.4784,-4.477,-4.477,-4.4769,-4.465,-4.4646,-4.4642,-4.4639,-4.4629,-4.4632,-4.4635,0,0,0,0,0,0,0,0,0,0,0,0,0,-4.4726,-4.4716,-4.4784,-4.4722,-4.4717,-4.477,-4.4769,-4.4769,-4.465,-4.4646,-4.4641,-4.4637,-4.4628,-4.4632,-4.4636,-4.4748,0,0,-4.4647,-4.4649,0,0,0,0,0,0,0,0,-4.4726,-4.4729,-4.4732,-4.4727,-4.472,-4.4706,-4.474,-4.4762,-4.4651,-4.4676,-4.464,-4.4635,-4.4659,-4.466,-4.4667,-4.4748,-4.4747,-4.4647,-4.465,-4.4651,-4.4652,0,0,0,0,0,0,0,-4.4725,-4.4729,-4.4779,-4.4732,-4.4725,-4.4697,-4.4694,-4.4744,-4.4693,-4.4673,-4.4664,-4.4664,-4.4655,-4.4664,-4.4666,-4.4747,-4.4647,-4.4651,-4.4653,-4.4654,-4.4922,-4.4927,0,0,0,0,0,0,-4.4732,-4.4729,-4.4779,-4.4778,-4.4712,-4.4702,-4.4698,-4.4716,-4.4692,-4.4684,-4.4668,-4.4659,-4.466,-4.4662,-4.4666,-4.4798,-4.4651,-4.4655,-4.4657,-4.4917,-4.4923,-4.4929,0,0,0,0,0,0,-4.4731,-4.4738,-4.478,-4.4751,-4.4754,-4.4708,-4.4728,-4.4718,-4.4726,-4.4688,-4.4679,-4.4686,-4.4657,-4.466,-4.4729,-4.4796,-4.4656,-4.466,-4.4912,-4.4919,-4.4926,-4.5063,0,0,0,0,0,0,-4.4729,-4.4738,-4.4779,-4.4753,-4.4756,-4.4842,-4.4732,-4.4721,-4.4732,-4.472,-4.4702,-4.4695,-4.4653,-4.4724,-4.4733,-4.4799,-4.4663,-4.4906,-4.4915,-4.4924,-4.5053,-4.5074,-4.5093,0,0,0,0,0,-4.4727,-4.4819,-4.4782,-4.4788,-4.4807,-4.4846,-4.4848,-4.4797,-4.4738,-4.478,-4.4756,-4.4696,-4.4787,-4.4732,-4.4741,-4.4809,-4.4901,-4.4912,-4.4923,-4.5044,-4.507,-4.5093,0,0,0,0,0,0,-4.4855,-4.4814,-4.4773,-4.4858,-4.4856,-4.4826,-4.4877,-4.4826,-4.4842,-4.483,-4.4767,-4.4764,-4.4843,-4.4832,-4.4772,-4.4918,-4.4834,-4.4847,-4.4923,-4.4947,-4.4967,-4.4969,-4.4666,0,0,0,0,0,-4.4893,-4.4927,-4.489,-4.4969,-4.497,-4.4924,-4.4939,-4.49,-4.4896,-4.4895,-4.4876,-4.4876,-4.4905,-4.4925,-4.4949,-4.505,-4.5046,-4.5101,-4.5122,-4.5138,-4.5151,-4.5206,-4.5231,-4.4965,-4.4964,-4.4964,0,0,-4.4972,-4.4954,-4.498,-4.4994,-4.4988,-4.5027,-4.4924,-4.4969,-4.4998,-4.4902,-4.4966,-4.4953,-4.4948,-4.5035,-4.5071,-4.5028,-4.5224,-4.5152,-4.5166,-4.517,-4.522,-4.5246,-4.5268,-4.4972,-4.4971,-4.4969,0,0,-4.5137,-4.5125,-4.5191,-4.5187,-4.5179,-4.5148,-4.5164,-4.5141,-4.5128,-4.5191,-4.5121,-4.5155,-4.5205,-4.5205,-4.5213,-4.5379,-4.5325,-4.5389,-4.5495,-4.555,-4.5571,-4.5589,-4.5651,-4.5674,-4.5401,-4.5401,-4.5402,0,-4.5237,-4.529,-4.5231,-4.5281,-4.5291,-4.5205,-4.5273,-4.5272,-4.5273,-4.5283,-4.5234,-4.5296,-4.5287,-4.5374,-4.5414,-4.5422,-4.544,-4.5391,-4.5572,-4.559,-4.5606,-4.5665,-4.5688,-4.5409,-4.5408,-4.5408,-4.5407,0,-4.5415,-4.5454,-4.5508,-4.551,-4.5526,-4.5584,-4.5536,-4.5559,-4.5519,-4.5494,-4.556,-4.5547,-4.5568,-4.5585,-4.5546,-4.5666,-4.564,-4.5583,-4.5497,-4.5641,-4.5695,-4.5716,-4.5421,-4.5418,-4.5416,-4.5414,0,0,-4.566,-4.5629,-4.5651,-4.5652,-4.5637,-4.5667,-4.5722,-4.5741,-4.5764,-4.5768,-4.5815,-4.586,-4.5807,-4.5815,-4.5775,-4.5823,-4.5959,-4.576,-4.5759,-4.5799,-4.6094,-4.614,-4.6166,-4.5922,-4.5926,-4.593,-4.6096,0,-4.582,-4.5912,-4.5861,-4.5961,-4.5998,-4.5917,-4.5966,-4.5963,-4.5942,-4.5971,-4.5947,-4.5981,-4.5907,-4.5912,-4.5955,-4.5933,-4.6018,-4.592,-4.5968,-4.5971,-4.5974,-4.6194,-4.6241,-4.6399,-4.6116,-4.612,-4.6122,0,-4.6019,-4.6031,-4.6135,-4.6115,-4.6128,-4.6173,-4.6187,-4.6215,-4.6212,-4.6193,-4.6203,-4.6152,-4.6208,-4.6122,-4.6199,-4.6134,-4.615,-4.6142,-4.6147,-4.6152,-4.6057,-4.6207,-4.6447,-4.6472,-4.6154,-4.6152,-4.6149,0,-4.6191,-4.6233,-4.63,-4.6303,-4.6281,-4.6315,-4.6308,-4.6299,-4.6315,-4.6328,-4.6338,-4.6358,-4.637,-4.6388,-4.6345,-4.6286,-4.643,-4.6339,-4.6418,-4.6419,-4.6453,-4.6452,-4.6702,-4.646,-4.646,-4.6459,-4.6459,0,-4.6376,-4.6443,-4.6377,-4.642,-4.6493,-4.6435,-4.651,-4.6494,-4.6488,-4.6527,-4.6458,-4.6497,-4.6437,-4.647,-4.6437,-4.6508,-4.6513,-4.6501,-4.6492,-4.6509,-4.6511,-4.652,-4.6509,-4.6466,-4.6464,-4.6463,-4.6462,0,-4.6581,-4.6539,-4.6608,-4.6582,-4.6577,-4.6632,-4.661,-4.665,-4.6623,-4.6674,-4.6682,-4.6642,-4.6678,-4.6636,-4.6669,-4.6646,-4.6743,-4.6716,-4.6744,-4.6738,-4.682,-4.6814,-4.7087,-4.7121,-4.6855,-4.6858,-4.686,0,-4.6703,-4.6753,-4.6732,-4.6752,-4.6749,-4.6783,-4.6798,-4.6743,-4.6763,-4.6763,-4.6803,-4.6833,-4.6854,-4.6916,-4.6891,-4.6916,-4.6891,-4.6985,-4.6895,-4.6911,-4.6896,-4.6894,-4.69,-4.7004,-4.7008,-4.701,-4.7012,0,-4.6925,-4.6902,-4.6926,-4.6944,-4.6964,-4.6976,-4.6983,-4.7004,-4.6947,-4.6973,-4.7008,-4.7024,-4.7058,-4.7089,-4.7108,-4.7102,-4.705,-4.7041,-4.7061,-4.7079,-4.7094,-4.709,-4.6797,-4.7035,-4.7033,-4.7031,-4.703,-4.7029,-4.7094,-4.7135,-4.7127,-4.7157,-4.7156,-4.7164,-4.72,-4.7178,-4.7206,-4.7228,-4.7194,-4.7239,-4.7237,-4.7255,-4.7256,-4.7292,-4.7252,-4.7281,-4.7288,-4.7297,-4.731,-4.7087,-4.7295,-4.7294,-4.7294,-4.7293,-4.7293,0,-4.7315,-4.7305,-4.7333,-4.7345,-4.7369,-4.7315,-4.732,-4.7344,-4.7384,-4.7385,-4.7407,-4.745,-4.748,-4.7458,-4.7484,-4.7517,-4.7494,-4.7527,-4.7525,-4.7525,-4.7343,-4.7324,-4.7545,-4.7545,-4.7545,-4.7545,-4.7545,-4.7545,-4.7432,-4.75,-4.7477,-4.7545,-4.7535,-4.7578,-4.7586,-4.7594,-4.7594,-4.7644,-4.7669,-4.7653,-4.7646,-4.7671,-4.7698,-4.769,-4.7704,-4.7746,-4.7731,-4.7562,-4.7537,-4.7514,-4.7496,-4.7749,-4.7749,-4.791,-4.7911,-4.7912]},{"header":{"parameterUnit":"m.s-1","parameterCategory":1,"la1":30.2991,"la2":30.254,"lo1":-89.0895,"lo2":-89.0444,"dy":0.0017,"dx":0.0017,"nx":28,"ny":28,"refTime":"2024-08-21T21:00:00:Z","depth":0,"parameterNumber":3,"parameterNumberName":"V-component_of_WINDS"},"data":[0,0,0,0,0,0,0,0,0,0,0,0,0,0,0,0,0,0,0,0,0,0,0,0,0,0,0,0,0,0,0,0,0,0,0,0,0,0,0,0,0,0,0,0,0,0,0,0,0,0,0,0,0,0,0,0,0,0,1.1118,1.1117,0,1.1011,1.101,1.1008,1.0969,1.0969,1.097,1.097,1.0852,1.0849,1.0846,0,0,0,0,0,0,0,0,0,0,0,0,0,1.1282,1.128,1.1118,1.1117,1.1115,1.1011,1.101,1.1008,1.0969,1.0969,1.097,1.097,1.0854,1.0849,1.0845,0,0,0,0,0,0,0,0,0,0,0,0,0,1.1196,1.1279,1.1118,1.1083,1.1079,1.1011,1.1009,1.1008,1.0969,1.0969,1.097,1.097,1.0855,1.085,1.0845,1.0801,0,0,1.0829,1.0826,0,0,0,0,0,0,0,0,1.1201,1.119,1.109,1.1086,1.1081,1.1004,1.1024,1.0938,1.0969,1.101,1.097,1.0971,1.0902,1.0893,1.0871,1.0796,1.0791,1.0828,1.0825,1.0823,1.0821,0,0,0,0,0,0,0,1.1207,1.1195,1.1075,1.1088,1.1083,1.1071,1.106,1.1008,1.0954,1.1007,1.1004,1.0992,1.0899,1.0876,1.0868,1.0789,1.0828,1.0824,1.0821,1.0819,1.0672,1.0671,0,0,0,0,0,0,1.122,1.12,1.1079,1.1072,1.1144,1.1068,1.1055,1.1028,1.0955,1.0944,1.0992,1.0991,1.0885,1.0874,1.0864,1.0807,1.0823,1.0818,1.0815,1.0672,1.0671,1.0671,0,0,0,0,0,0,1.1224,1.121,1.1083,1.1135,1.1118,1.1064,1.1035,1.1026,1.1002,1.0943,1.0933,1.0978,1.0885,1.0871,1.0817,1.0803,1.0816,1.0811,1.0673,1.0672,1.0671,1.0695,0,0,0,0,0,0,1.1229,1.1211,1.1196,1.1135,1.1116,1.104,1.1034,1.1023,1.0994,1.0992,1.0928,1.0918,1.0884,1.0826,1.0812,1.0796,1.0807,1.0674,1.0673,1.0671,1.0695,1.0694,1.0694,0,0,0,0,0,1.1235,1.1205,1.1195,1.1181,1.1095,1.104,1.1028,1.0993,1.0994,1.0976,1.0938,1.092,1.0807,1.082,1.0805,1.0787,1.0675,1.0673,1.0671,1.0695,1.0694,1.0694,0,0,0,0,0,0,1.1261,1.1196,1.1184,1.1135,1.1094,1.1033,1.101,1.0993,1.0949,1.0948,1.0904,1.089,1.0839,1.0808,1.0824,1.0741,1.074,1.0735,1.0763,1.0762,1.0761,1.0769,1.0802,0,0,0,0,0,1.1262,1.1225,1.1169,1.113,1.1111,1.1064,1.1039,1.1015,1.097,1.0951,1.0909,1.0864,1.0818,1.0788,1.0743,1.0691,1.0675,1.0671,1.0671,1.0671,1.0666,1.0635,1.0632,1.0665,1.0665,1.0665,0,0,1.1262,1.1222,1.12,1.1135,1.11,1.106,1.105,1.1008,1.0977,1.0944,1.0891,1.0859,1.0805,1.0752,1.0726,1.0724,1.0654,1.0668,1.0669,1.0664,1.0633,1.063,1.0627,1.0664,1.0664,1.0664,0,0,1.1241,1.1208,1.1172,1.1138,1.1087,1.1057,1.1048,1.0991,1.0969,1.0916,1.0891,1.0853,1.0775,1.0738,1.0709,1.0676,1.0657,1.0662,1.0659,1.063,1.0627,1.0625,1.0612,1.0608,1.0659,1.0659,1.0659,0,1.1246,1.1187,1.1154,1.1115,1.1086,1.1058,1.102,1.0988,1.0923,1.0903,1.0903,1.0806,1.0767,1.0705,1.0697,1.0675,1.0662,1.0668,1.0631,1.0628,1.0625,1.0612,1.0607,1.066,1.066,1.0659,1.0659,0,1.1196,1.1156,1.1132,1.1074,1.1043,1.1004,1.0964,1.0936,1.0916,1.0885,1.0831,1.0785,1.073,1.0714,1.0692,1.0648,1.0648,1.064,1.0638,1.0624,1.061,1.0605,1.0661,1.0661,1.066,1.066,0,0,1.1185,1.1112,1.1104,1.1077,1.102,1.0986,1.0946,1.0895,1.0872,1.0829,1.0792,1.0729,1.0721,1.0688,1.0663,1.0638,1.0614,1.0632,1.063,1.0629,1.056,1.0565,1.056,1.0602,1.0601,1.06,1.0564,0,1.1156,1.1085,1.1055,1.0997,1.0959,1.0932,1.0897,1.0857,1.0828,1.0789,1.0756,1.0711,1.0706,1.0686,1.066,1.0622,1.0599,1.0625,1.0565,1.0563,1.0577,1.0554,1.0558,1.0527,1.0559,1.0558,1.0558,0,1.111,1.107,1.1009,1.0958,1.094,1.0909,1.086,1.0825,1.0779,1.0759,1.0724,1.0701,1.0655,1.0659,1.0595,1.0613,1.0587,1.0565,1.0563,1.0554,1.0558,1.0542,1.0516,1.0511,1.0549,1.055,1.0551,0,1.1107,1.1038,1.0993,1.0971,1.0909,1.0888,1.0861,1.0816,1.0787,1.0744,1.0725,1.0676,1.0649,1.0611,1.0574,1.058,1.0513,1.0513,1.0493,1.0494,1.0478,1.0479,1.0446,1.0466,1.0466,1.0466,1.0466,0,1.1075,1.1038,1.0991,1.0962,1.092,1.0886,1.0844,1.0815,1.0775,1.074,1.0714,1.068,1.0635,1.0595,1.0566,1.0517,1.0505,1.0487,1.0479,1.0487,1.049,1.0468,1.0468,1.0464,1.0465,1.0465,1.0465,0,1.1063,1.103,1.0978,1.0926,1.0912,1.0883,1.0837,1.0807,1.0779,1.0734,1.0721,1.0674,1.0626,1.0587,1.0523,1.0504,1.0452,1.0444,1.0468,1.0464,1.0445,1.0447,1.0395,1.0386,1.0414,1.0414,1.0414,0,1.1044,1.1015,1.0961,1.0937,1.0911,1.0871,1.0843,1.0809,1.078,1.0726,1.0703,1.0654,1.0613,1.0537,1.0496,1.0447,1.0436,1.0422,1.0428,1.0438,1.0434,1.0435,1.0431,1.042,1.042,1.042,1.042,0,1.1012,1.0998,1.096,1.0916,1.0884,1.0847,1.0809,1.079,1.0748,1.0717,1.0669,1.0637,1.0574,1.0525,1.0472,1.0442,1.0423,1.0419,1.0411,1.0418,1.0433,1.0423,1.0464,1.0419,1.0419,1.0419,1.0419,1.0419,1.0994,1.0968,1.0926,1.0884,1.0853,1.0819,1.0789,1.0758,1.0718,1.0666,1.0648,1.0598,1.0553,1.0481,1.0451,1.041,1.0408,1.0397,1.0394,1.0391,1.0392,1.0442,1.04,1.04,1.04,1.04,1.04,0,1.096,1.0932,1.0895,1.0844,1.0811,1.0801,1.0759,1.0731,1.0689,1.0649,1.061,1.0555,1.0508,1.0465,1.0415,1.0391,1.0381,1.0379,1.0379,1.0372,1.0397,1.0408,1.0388,1.0388,1.0388,1.0388,1.0388,1.0388,1.0938,1.0892,1.0873,1.0812,1.0784,1.0738,1.0715,1.0682,1.0651,1.0592,1.0554,1.0527,1.0486,1.0433,1.0389,1.0377,1.0359,1.0359,1.0344,1.0368,1.037,1.0372,1.0381,1.0356,1.0356,1.0322,1.0322,1.0321]}]]